Time,TemperatureF,DewpointF,PressureIn,WindDirection,WindDirectionDegrees,WindSpeedMPH,WindSpeedGustMPH,Humidity,HourlyPrecipIn,Conditions,Clouds,dailyrainin,SolarRadiationWatts/m^2,SoftwareType,DateUTC
2013-03-02 00:17:00,51.9,48.0,30.22,ESE,111,3.0,-999.0,85,-99.99,,,0.00,0,weatherlink.com 1.10,2013-03-02 08:17:00,
2013-03-02 00:32:00,52.0,48.0,30.22,ESE,103,15.0,-999.0,85,-99.99,,,0.00,0,weatherlink.com 1.10,2013-03-02 08:32:00,
2013-03-02 00:47:00,51.9,48.0,30.21,ESE,119,5.0,-999.0,85,-99.99,,,0.00,0,weatherlink.com 1.10,2013-03-02 08:47:00,
2013-03-02 01:02:00,51.9,48.0,30.22,East,93,6.0,-999.0,86,-99.99,,,0.00,0,weatherlink.com 1.10,2013-03-02 09:02:00,
2013-03-02 01:17:00,51.6,48.0,30.22,ESE,122,7.0,-999.0,87,-99.99,,,0.00,0,weatherlink.com 1.10,2013-03-02 09:17:00,
2013-03-02 01:32:00,51.3,48.0,30.22,SE,142,5.0,-999.0,88,-99.99,,,0.00,0,weatherlink.com 1.10,2013-03-02 09:32:00,
2013-03-02 01:47:00,51.5,48.0,30.22,SE,143,7.0,-999.0,88,-99.99,,,0.00,0,weatherlink.com 1.10,2013-03-02 09:47:00,
2013-03-02 02:02:00,51.2,48.0,30.21,ESE,114,8.0,-999.0,88,-99.99,,,0.00,0,weatherlink.com 1.10,2013-03-02 10:02:00,
2013-03-02 02:17:00,50.9,48.0,30.20,SE,132,11.0,-999.0,88,-99.99,,,0.00,0,weatherlink.com 1.10,2013-03-02 10:17:00,
2013-03-02 02:32:00,50.8,47.0,30.20,ESE,115,7.0,-999.0,88,-99.99,,,0.00,0,weatherlink.com 1.10,2013-03-02 10:32:00,
2013-03-02 02:47:00,50.8,48.0,30.19,ESE,109,9.0,-999.0,89,-99.99,,,0.00,0,weatherlink.com 1.10,2013-03-02 10:47:00,
2013-03-02 03:02:00,50.8,48.0,30.19,ESE,114,7.0,-999.0,89,-99.99,,,0.00,0,weatherlink.com 1.10,2013-03-02 11:02:00,
2013-03-02 03:17:00,50.6,48.0,30.18,SE,126,14.0,-999.0,89,-99.99,,,0.00,0,weatherlink.com 1.10,2013-03-02 11:17:00,
2013-03-02 03:32:00,50.6,48.0,30.17,SE,144,10.0,-999.0,89,-99.99,,,0.00,0,weatherlink.com 1.10,2013-03-02 11:32:00,
2013-03-02 03:47:00,50.6,48.0,30.16,SE,126,7.0,-999.0,89,-99.99,,,0.00,0,weatherlink.com 1.10,2013-03-02 11:47:00,
2013-03-02 04:02:00,50.6,48.0,30.16,SE,132,9.0,-999.0,89,-99.99,,,0.00,0,weatherlink.com 1.10,2013-03-02 12:02:00,
2013-03-02 04:17:00,50.6,48.0,30.16,SE,131,10.0,-999.0,89,-99.99,,,0.00,0,weatherlink.com 1.10,2013-03-02 12:17:00,
2013-03-02 04:32:00,50.7,48.0,30.16,SE,126,5.0,-999.0,90,-99.99,,,0.00,0,weatherlink.com 1.10,2013-03-02 12:32:00,
2013-03-02 04:47:00,50.7,48.0,30.16,ESE,117,7.0,-999.0,89,-99.99,,,0.00,0,weatherlink.com 1.10,2013-03-02 12:47:00,
2013-03-02 05:02:00,50.8,48.0,30.15,SE,141,11.0,-999.0,89,-99.99,,,0.00,0,weatherlink.com 1.10,2013-03-02 13:02:00,
2013-03-02 05:17:00,50.9,48.0,30.15,ESE,122,5.0,-999.0,89,-99.99,,,0.00,0,weatherlink.com 1.10,2013-03-02 13:17:00,
2013-03-02 05:32:00,51.1,49.0,30.15,SE,142,4.0,-999.0,92,-99.99,,,0.00,0,weatherlink.com 1.10,2013-03-02 13:32:00,
2013-03-02 05:47:00,51.1,48.0,30.15,SE,124,5.0,-999.0,89,-99.99,,,0.00,0,weatherlink.com 1.10,2013-03-02 13:47:00,
2013-03-02 06:03:00,51.1,48.0,30.14,ESE,106,7.0,-999.0,88,-99.99,,,0.00,0,weatherlink.com 1.10,2013-03-02 14:03:00,
2013-03-02 06:18:00,51.0,48.0,30.13,SE,126,6.0,-999.0,88,-99.99,,,0.00,0,weatherlink.com 1.10,2013-03-02 14:18:00,
2013-03-02 06:33:00,50.7,48.0,30.13,ESE,112,9.0,-999.0,89,-99.99,,,0.00,0,weatherlink.com 1.10,2013-03-02 14:33:00,
2013-03-02 06:48:00,50.5,47.0,30.13,SE,144,13.0,-999.0,89,-99.99,,,0.00,0,weatherlink.com 1.10,2013-03-02 14:48:00,
2013-03-02 07:03:00,50.3,47.0,30.12,SE,134,10.0,-999.0,89,-99.99,,,0.00,0,weatherlink.com 1.10,2013-03-02 15:03:00,
2013-03-02 07:18:00,50.4,47.0,30.11,ESE,123,12.0,-999.0,89,-99.99,,,0.00,7,weatherlink.com 1.10,2013-03-02 15:18:00,
2013-03-02 07:33:00,50.4,47.0,30.11,ESE,116,7.0,-999.0,89,-99.99,,,0.00,12,weatherlink.com 1.10,2013-03-02 15:33:00,
2013-03-02 07:48:00,50.4,47.0,30.11,ESE,108,7.0,-999.0,89,-99.99,,,0.00,18,weatherlink.com 1.10,2013-03-02 15:48:00,
2013-03-02 08:03:00,50.6,48.0,30.10,ESE,112,7.0,-999.0,89,-99.99,,,0.00,25,weatherlink.com 1.10,2013-03-02 16:03:00,
2013-03-02 08:18:00,50.7,47.0,30.10,East,101,7.0,-999.0,88,-99.99,,,0.00,26,weatherlink.com 1.10,2013-03-02 16:18:00,
2013-03-02 08:33:00,50.7,47.0,30.10,SE,133,6.0,-999.0,88,-99.99,,,0.00,37,weatherlink.com 1.10,2013-03-02 16:33:00,
2013-03-02 08:48:00,50.7,47.0,30.10,SE,132,13.0,-999.0,88,-99.99,,,0.00,47,weatherlink.com 1.10,2013-03-02 16:48:00,
2013-03-02 09:03:00,50.7,47.0,30.09,ESE,119,12.0,-999.0,88,-99.99,,,0.00,56,weatherlink.com 1.10,2013-03-02 17:03:00,
2013-03-02 09:18:00,50.9,48.0,30.08,SE,144,9.0,-999.0,88,-99.99,,,0.00,84,weatherlink.com 1.10,2013-03-02 17:18:00,
2013-03-02 09:37:00,51.0,48.0,30.08,ESE,111,12.0,-999.0,88,-99.99,,,0.00,72,weatherlink.com 1.10,2013-03-02 17:37:00,
2013-03-02 09:48:00,51.1,48.0,30.08,ESE,105,15.0,-999.0,88,-99.99,,,0.00,95,weatherlink.com 1.10,2013-03-02 17:48:00,
2013-03-02 10:39:00,51.3,48.0,30.05,ESE,113,9.0,-999.0,87,-99.99,,,0.00,142,weatherlink.com 1.10,2013-03-02 18:39:00,
2013-03-02 10:51:00,51.5,48.0,30.06,South,172,5.0,-999.0,87,-99.99,,,0.00,146,weatherlink.com 1.10,2013-03-02 18:51:00,
2013-03-02 11:03:00,51.8,48.0,30.06,SE,133,11.0,-999.0,86,-99.99,,,0.00,97,weatherlink.com 1.10,2013-03-02 19:03:00,
2013-03-02 11:18:00,52.3,49.0,30.06,South,189,1.0,-999.0,89,-99.99,,,0.00,104,weatherlink.com 1.10,2013-03-02 19:18:00,
2013-03-02 11:33:00,51.4,47.0,30.06,WSW,254,1.0,-999.0,86,-99.99,,,0.00,149,weatherlink.com 1.10,2013-03-02 19:33:00,
2013-03-02 12:00:00,51.3,48.0,30.05,West,259,1.0,-999.0,89,-99.99,,,0.00,151,weatherlink.com 1.10,2013-03-02 20:00:00,
2013-03-02 12:18:00,51.1,48.0,30.05,WSW,241,1.0,-999.0,88,-99.99,,,0.00,171,weatherlink.com 1.10,2013-03-02 20:18:00,
2013-03-02 12:33:00,50.9,48.0,30.05,WSW,253,4.0,-999.0,88,-99.99,,,0.00,81,weatherlink.com 1.10,2013-03-02 20:33:00,
2013-03-02 12:48:00,49.9,47.0,30.06,SSW,200,14.0,-999.0,89,-99.99,,,0.00,25,weatherlink.com 1.10,2013-03-02 20:48:00,
2013-03-02 13:03:00,46.1,43.0,30.06,WSW,244,5.0,-999.0,88,-99.99,,,0.00,63,weatherlink.com 1.10,2013-03-02 21:03:00,
2013-03-02 13:18:00,45.0,42.0,30.07,WSW,246,5.0,-999.0,88,-99.99,,,0.00,53,weatherlink.com 1.10,2013-03-02 21:18:00,
2013-03-02 13:33:00,44.6,42.0,30.07,SW,227,10.0,-999.0,89,-99.99,,,0.00,46,weatherlink.com 1.10,2013-03-02 21:33:00,
2013-03-02 13:48:00,44.3,41.0,30.08,WSW,257,11.0,-999.0,88,-99.99,,,0.00,39,weatherlink.com 1.10,2013-03-02 21:48:00,
2013-03-02 14:03:00,43.9,41.0,30.07,SSW,209,11.0,-999.0,89,-99.99,,,0.00,49,weatherlink.com 1.10,2013-03-02 22:03:00,
2013-03-02 14:18:00,44.0,41.0,30.07,WNW,294,10.0,-999.0,89,-99.99,,,0.00,46,weatherlink.com 1.10,2013-03-02 22:18:00,
2013-03-02 14:33:00,43.7,41.0,30.08,WSW,242,13.0,-999.0,90,-99.99,,,0.00,49,weatherlink.com 1.10,2013-03-02 22:33:00,
2013-03-02 14:48:00,43.2,41.0,30.08,WSW,257,10.0,-999.0,90,-99.99,,,0.00,62,weatherlink.com 1.10,2013-03-02 22:48:00,
2013-03-02 15:03:00,42.9,40.0,30.08,WSW,251,9.0,-999.0,90,-99.99,,,0.01,51,weatherlink.com 1.10,2013-03-02 23:03:00,
2013-03-02 15:18:00,42.8,40.0,30.08,West,272,12.0,-999.0,91,-99.99,,,0.02,51,weatherlink.com 1.10,2013-03-02 23:18:00,
2013-03-02 15:33:00,42.7,40.0,30.09,SW,235,6.0,-999.0,91,-99.99,,,0.03,30,weatherlink.com 1.10,2013-03-02 23:33:00,
2013-03-02 15:48:00,42.6,40.0,30.08,WSW,257,18.0,-999.0,90,-99.99,,,0.03,25,weatherlink.com 1.10,2013-03-02 23:48:00,
2013-03-02 16:03:00,42.7,40.0,30.09,SW,236,13.0,-999.0,90,-99.99,,,0.03,19,weatherlink.com 1.10,2013-03-03 00:03:00,
2013-03-02 16:18:00,42.8,40.0,30.09,SW,217,10.0,-999.0,89,-99.99,,,0.03,19,weatherlink.com 1.10,2013-03-03 00:18:00,
2013-03-02 16:33:00,42.9,40.0,30.09,SW,231,9.0,-999.0,89,-99.99,,,0.03,26,weatherlink.com 1.10,2013-03-03 00:33:00,
2013-03-02 16:49:00,43.2,40.0,30.09,NW,320,4.0,-999.0,88,-99.99,,,0.03,18,weatherlink.com 1.10,2013-03-03 00:49:00,
2013-03-02 17:04:00,43.4,40.0,30.09,West,259,13.0,-999.0,88,-99.99,,,0.03,23,weatherlink.com 1.10,2013-03-03 01:04:00,
2013-03-02 17:19:00,43.2,40.0,30.09,NW,326,10.0,-999.0,87,-99.99,,,0.03,33,weatherlink.com 1.10,2013-03-03 01:19:00,
2013-03-02 17:34:00,43.5,40.0,30.10,WNW,302,13.0,-999.0,87,-99.99,,,0.03,30,weatherlink.com 1.10,2013-03-03 01:34:00,
2013-03-02 17:49:00,43.7,40.0,30.10,West,259,12.0,-999.0,87,-99.99,,,0.03,47,weatherlink.com 1.10,2013-03-03 01:49:00,
2013-03-02 18:04:00,43.5,40.0,30.11,WSW,243,7.0,-999.0,88,-99.99,,,0.03,0,weatherlink.com 1.10,2013-03-03 02:04:00,
2013-03-02 18:19:00,43.3,40.0,30.11,SW,226,11.0,-999.0,88,-99.99,,,0.03,0,weatherlink.com 1.10,2013-03-03 02:19:00,
2013-03-02 18:34:00,43.3,40.0,30.11,WSW,247,14.0,-999.0,88,-99.99,,,0.03,0,weatherlink.com 1.10,2013-03-03 02:34:00,
2013-03-02 18:49:00,43.4,40.0,30.12,West,276,8.0,-999.0,87,-99.99,,,0.03,0,weatherlink.com 1.10,2013-03-03 02:49:00,
2013-03-02 19:04:00,43.3,40.0,30.12,WSW,249,15.0,-999.0,87,-99.99,,,0.03,0,weatherlink.com 1.10,2013-03-03 03:04:00,
2013-03-02 19:50:00,43.2,39.0,30.14,WNW,282,15.0,-999.0,84,-99.99,,,0.03,0,weatherlink.com 1.10,2013-03-03 03:50:00,
2013-03-02 20:10:00,43.0,38.0,30.15,West,279,11.0,-999.0,83,-99.99,,,0.03,0,weatherlink.com 1.10,2013-03-03 04:10:00,
2013-03-02 20:19:00,42.9,38.0,30.15,WNW,294,5.0,-999.0,82,-99.99,,,0.03,0,weatherlink.com 1.10,2013-03-03 04:19:00,
2013-03-02 20:36:00,43.0,38.0,30.15,West,268,19.0,-999.0,81,-99.99,,,0.03,0,weatherlink.com 1.10,2013-03-03 04:36:00,
2013-03-02 20:49:00,43.2,37.0,30.15,SW,226,11.0,-999.0,80,-99.99,,,0.03,0,weatherlink.com 1.10,2013-03-03 04:49:00,
2013-03-02 21:04:00,43.1,37.0,30.15,West,259,16.0,-999.0,80,-99.99,,,0.03,0,weatherlink.com 1.10,2013-03-03 05:04:00,
2013-03-02 21:38:00,42.7,37.0,30.16,West,269,12.0,-999.0,81,-99.99,,,0.03,0,weatherlink.com 1.10,2013-03-03 05:38:00,
2013-03-02 21:54:00,42.9,37.0,30.16,West,275,9.0,-999.0,81,-99.99,,,0.03,0,weatherlink.com 1.10,2013-03-03 05:54:00,
2013-03-02 22:06:00,42.7,37.0,30.16,WSW,245,3.0,-999.0,81,-99.99,,,0.03,0,weatherlink.com 1.10,2013-03-03 06:06:00,
2013-03-02 22:20:00,42.5,37.0,30.17,West,260,6.0,-999.0,81,-99.99,,,0.03,0,weatherlink.com 1.10,2013-03-03 06:20:00,
2013-03-02 22:35:00,42.5,37.0,30.17,WSW,244,17.0,-999.0,82,-99.99,,,0.03,0,weatherlink.com 1.10,2013-03-03 06:35:00,
2013-03-02 22:50:00,41.9,37.0,30.16,WSW,240,11.0,-999.0,83,-99.99,,,0.03,0,weatherlink.com 1.10,2013-03-03 06:50:00,
2013-03-02 23:05:00,41.7,38.0,30.17,WSW,239,11.0,-999.0,85,-99.99,,,0.03,0,weatherlink.com 1.10,2013-03-03 07:05:00,
2013-03-02 23:20:00,41.9,38.0,30.16,West,265,11.0,-999.0,85,-99.99,,,0.03,0,weatherlink.com 1.10,2013-03-03 07:20:00,
2013-03-02 23:35:00,42.2,37.0,30.17,SSW,213,11.0,-999.0,83,-99.99,,,0.03,0,weatherlink.com 1.10,2013-03-03 07:35:00,
2013-03-02 23:50:00,41.9,37.0,30.17,WSW,239,5.0,-999.0,83,-99.99,,,0.03,0,weatherlink.com 1.10,2013-03-03 07:50:00,